Location: Unspecified
(0.0000°N, 0.0000°E)
Time: 14:51:32
(UTC+02:00)

Tiros 1 despin weight - Visible Passes

Search period start: 29 June 2016 00:00
Search period end: 09 July 2016 00:00
Orbit: 596 x 645 km, 48.2° (Epoch: 27 June)

Date Brightness Start Highest point End Pass type
(mag) Time Alt. Az. Time Alt. Az. Time Alt. Az.
29 Jun ? 20:33:37 10° NNE 20:35:54 13° NE 20:38:12 10° E visible
29 Jun ? 22:12:53 10° NW 22:16:18 40° W 22:16:18 40° W visible
30 Jun ? 20:48:55 10° NNW 20:53:12 35° NE 20:56:14 17° ESE visible
30 Jun ? 22:31:25 10° W 22:33:22 17° WSW 22:33:22 17° WSW visible
01 Jul ? 21:05:42 10° NW 21:10:24 84° SW 21:13:20 23° SE visible
02 Jul ? 07:35:59 10° SSE 07:37:34 12° SE 07:39:10 10° ESE visible
02 Jul ? 21:23:30 10° WNW 21:27:37 30° SW 21:30:28 17° S visible
03 Jul ? 21:43:14 10° WSW 21:44:55 12° SW 21:46:35 10° SSW visible
05 Jul ? 06:44:43 10° S 06:47:51 19° SE 06:50:58 10° E visible
05 Jul ? 20:34:26 10° W 20:37:50 20° SW 20:41:15 10° S visible
06 Jul ? 07:01:31 14° SSW 07:05:06 52° SE 07:09:23 10° NE visible
07 Jul ? 05:41:30 11° ESE 05:41:30 11° ESE 05:42:01 10° ESE visible
07 Jul ? 07:18:38 14° SW 07:22:17 52° NW 07:26:34 10° NNE visible
08 Jul ? 05:58:37 29° ESE 05:58:37 29° ESE 06:01:58 10° ENE visible
08 Jul ? 07:36:25 10° W 07:39:31 19° NW 07:42:36 10° N visible
